Regional Weather Roundup
Issued by NWS Jackson, KY

Home | Current Version | Previous Version | Text Only | Print | Product List | Glossary On
Versions: 1 2 3 4 5 6 7 8 9 10 11 12 13 14 15 16 17 18 19 20 21 22 23 24 25 26 27 28 29 30 31 32 33 34 35 36 37 38 39 40 41 42 43 44 45 46 47 48 49 50
000
ASUS43 KJKL 030219
RWRJKL

EAST KENTUCKY HOURLY WEATHER ROUNDUP
NATIONAL WEATHER SERVICE JACKSON KY
1000 PM EDT TUE SEP 02 2014

NOTE: "FAIR" INDICATES FEW OR NO CLOUDS BELOW 12,000 FEET WITH
NO SIGNIFICANT WEATHER AND/OR OBSTRUCTIONS TO VISIBILITY.

* THESE REPORTS ARE NOT UNDER NWS QUALITY CONTROL AND MAY NOT
  REPORT WEATHER SUCH AS PRECIPITATION AND FOG.

KYZ079-080-083-085-087-088-110-112-115-119-120-030300
...EASTERN KENTUCKY...

CITY           SKY/WX    TMP DP  RH WIND       PRES   REMARKS
JACKSON        CLOUDY    69  67  93 CALM      30.05S
LONDON         CLOUDY    71  67  87 S3        30.06R
SOMERSET*      MOCLDY    70  68  94 CALM      30.04S
MONTICELLO*    CLOUDY    73  71  93 CALM      30.04S
WILLIAMSBURG*    N/A    N/A N/A N/A SE8         N/A
MIDDLESBORO*   LGT RAIN  69  68  96 CALM      30.09S
HARLAN APT*    CLOUDY    68  68 100 MISG      30.10R
HAZARD APT*    CLOUDY    70  70 100 S3        30.06
BLACK MTN*       N/A     63  63 100 S7          N/A
PIKEVILLE APT* PTCLDY    68  68 100 S6        30.06R
BIG SANDY*     CLOUDY    70  68  95 S5        30.04R
MOREHEAD APT*  CLOUDY    70  68  94 CALM      30.03S
ASHLAND*       CLOUDY    72  66  83 CALM      29.98R
$$

KYZ035-036-041-042-044-050-067-078-099-030300
...CENTRAL KENTUCKY...

CITY           SKY/WX    TMP DP  RH WIND       PRES   REMARKS
MT STERLING*   MOCLDY    68  68 100 SW5       30.03R
FLEMING/MASON* FOG       68  68 100 S5        30.01R VSB 1/2
DANVILLE*      CLOUDY    70  70 100 S3        30.03R
RICHMOND*      CLOUDY    72  68  88 S5        30.03R
LEXINGTON      MOCLDY    71  68  90 S5        30.01R
FRANKFORT      MOCLDY    70  69  97 CALM      29.99R
$$

KYZ091>093-OHZ055-061-077-WVZ005-015-034-035-042-030300
...SOUTHERN OHIO/WEST VIRGINIA...

CITY           SKY/WX    TMP DP  RH WIND       PRES   REMARKS
COVINGTON      MOCLDY    70  69  97 CALM      29.98R
COLUMBUS       PTCLDY    73  66  78 N5        29.96R
DAYTON         CLEAR     70  66  87 SW3       29.99R
WILMINGTON     CLEAR     67  64  90 CALM      29.98R
HUNTINGTON     CLOUDY    70  69  97 SW3       29.99R
CHARLESTON     CLOUDY    72  70  93 S6        29.99S
PINEVILLE*     LGT RAIN  72  72 100 MISG      30.12S
BECKLEY        RAIN      67  65  93 S3        30.10F FOG
BLUEFIELD      CLOUDY    68  64  87 W8        30.14S
$$

VAZ002-007-008-TNZ017-027-036-066-071-030300
...SOUTHWEST VIRGINIA/EAST TENNESSEE...

CITY           SKY/WX    TMP DP  RH WIND       PRES   REMARKS
WISE*          TSTM      66  66 100 S5        30.16R
JONESVILLE*    LGT RAIN  68  68 100 CALM      30.12S
ABINGDON*      LGT RAIN  68  66  93 CALM      30.15R
BRISTOL        TSTM      71  64  78 NW14G21   30.09F
KNOXVILLE      CLOUDY    75  67  76 NE13      30.04S THUNDER
OAK RIDGE      LGT RAIN  73  71  93 CALM      30.08S
CROSSVILLE     CLOUDY    70  66  87 CALM      30.09F
NASHVILLE      TSTM      74  73  97 CALM      30.01R
$$

...KEY TO REMARKS...
VSB - VISIBILITY IN MILES
WCI - WIND CHILL INDEX
HX  - HEAT INDEX

$$



USA.gov is the U.S. government's official web portal to all federal, state and local government web resources and services.